Regional Weather Roundup
Issued by NWS

Home | Current Version | Previous Version | Graphics & Text | Print | Product List | Glossary Off
Versions: 1 2 3 4 5 6 7 8 9 10 11 12 13 14 15 16 17 18 19 20 21 22 23 24 25 26 27 28 29 30 31 32 33 34 35 36 37 38 39 40 41 42 43 44 45 46 47 48 49 50

000
ASUS45 KBOU 121007
RWRCO

WEATHER ROUNDUP FOR COLORADO
NATIONAL WEATHER SERVICE DENVER/BOULDER CO
300 AM MST FRI FEB 12 2016

NOTE: "FAIR" INDICATES FEW OR NO CLOUDS BELOW 12000 FEET WITH NO
SIGNIFICANT WEATHER AND/OR OBSTRUCTIONS TO VISIBILITY.

COZ001>005-013-030-031-121100-
...NORTHWEST COLORADO...

CITY           SKY/WX    TMP DP  RH WIND       PRES   REMARKS
CRAIG          CLOUDY     9   5  84 CALM      30.41S
HAYDEN         CLOUDY    21  12  68 SE12      30.40S WCI   9
MEEKER         CLOUDY    18  11  74 CALM      30.41R
MOUNT WERNER   NOT AVBL
STEAMBOAT SPGS CLOUDY    19  14  84 CALM      30.42R
WALDEN         CLOUDY    28  18  64 SE6       30.40S WCI  22
$$

COZ006>008-011-121100-
...WEST CENTRAL VALLEYS...

CITY           SKY/WX    TMP DP  RH WIND       PRES   REMARKS
GRAND JUNCTION CLOUDY    27  22  81 SE8       30.41S WCI  19
MONTROSE       CLOUDY    25  17  72 S9        30.45S WCI  15
EAGLE          CLOUDY    18  18 100 E6        30.47F WCI   9
RIFLE          CLOUDY    18  12  77 CALM      30.45R
DELTA          CLOUDY    28  25  86 CALM      30.44S
NUCLA          CLOUDY    28  21  74 E6        30.46R WCI  22
$$

COZ017>023-064>068-121100-
...SOUTHWEST COLORADO...

CITY           SKY/WX    TMP DP  RH WIND       PRES   REMARKS
DURANGO        CLOUDY    18  15  88 NE6       30.41S WCI  10
CORTEZ         CLOUDY    22  17  81 NE3       30.41S
PAGOSA SPRINGS CLOUDY    22  17  80 CALM      30.43R
TELLURIDE      CLOUDY    32  10  39 SE7       30.50R WCI  26
WOLF CREEK PAS CLOUDY    30   9  40 SW8       30.56F WCI  23
$$

COZ009-010-012-014-032>034-037-058>063-121100-
...CENTRAL COLORADO...

CITY           SKY/WX    TMP DP  RH WIND       PRES   REMARKS
ASPEN          CLOUDY    20  11  68 CALM      30.43R
BUENA VISTA    CLOUDY    27  19  72 NW3       30.41S
COPPER MTN     CLOUDY    28  14  54 W24       30.49S WCI  14
BERTHOUD PASS  FAIR      19   9  63 NW37G43   30.42R WCI  -1
COTTONWOOD PAS CLOUDY    37  12  35 NW3       30.44S
GUNNISON       CLOUDY    -2 -22  38 CALM      30.55R
KREMMLING      CLOUDY     1  -4  78 CALM      30.47S
LEADVILLE      CLOUDY    22  11  62 E7        30.44S WCI  13
MONARCH PASS   CLOUDY    25  12  58 MISG      30.59S
SALIDA         NOT AVBL
SUNLIGHT       CLOUDY    32   9  37 SW3         N/A
WILKERSON PASS CLOUDY    30  16  55 W5        30.48F WCI  25
$$

COZ069>075-121100-
...SAN LUIS VALLEY/SANGRE DE CRISTO MOUNTAINS...

CITY           SKY/WX    TMP DP  RH WIND       PRES   REMARKS
ALAMOSA        CLOUDY    22  17  81 S3        30.41S
LA VETA PASS   CLOUDY    32  10  40 MISG      30.41R
SAGUACHE       CLOUDY    28  14  54 NW15      30.43S WCI  17
$$

COZ035-036-038>040-121100-
...NORTHERN COLORADO FRONT RANGE...

CITY           SKY/WX    TMP DP  RH WIND       PRES   REMARKS
DENVER INTL AP CLOUDY    35  24  64 SE10      30.25F WCI  27
DMNS CITY PARK   N/A     37  23  58 NW5       30.27R
AURORA         PTCLDY    34  24  68 SE10      30.26S WCI  26
FRONT RANGE AP NOT AVBL
ERIE MUNI ARPT CLOUDY    33  27  80 CALM      30.28R
BOULDER MUN AP CLOUDY    36  27  69 CALM      30.28R
CENTENNIAL     CLOUDY    36  24  62 SE6       30.26S
BROOMFIELD     CLOUDY    37  27  65 NW12      30.28R
FORT COLLINS   CLOUDY    36  25  64 CALM      30.29S
LONGMONT       CLOUDY    36  27  70 NW3       30.29S
$$

COZ041-046-047-076>085-087-088-121100-
...PIKES PEAK/PALMER DIVIDE AND SOUTHERN FOOTHILLS...

CITY           SKY/WX    TMP DP  RH WIND       PRES   REMARKS
COLO. SPRINGS  CLOUDY    32  22  66 NE7       30.32F WCI  26
A. F. ACADEMY  CLOUDY    26  20  80 NW7       30.31S WCI  18
SCHRIEVER AFB  FAIR      34  22  63 W3        30.32F
ELLICOTT       CLOUDY   N/A N/A N/A NE3       30.31F
FALCON         CLOUDY    29  20  70 NW6       30.33F WCI  23
FORT CARSON    MOCLDY    31  23  73 N6        30.29F WCI  25
LIMON          CLOUDY    19  17  92 N8        30.31S WCI   9
MONUMENT HILL  CLOUDY    32  23  69 S12       30.32R WCI  23
TRINIDAD       CLOUDY    33  21  61 W14       30.32F WCI  23
$$

COZ042>045-048>051-090-091-121100-
...NORTHEAST COLORADO...

CITY           SKY/WX    TMP DP  RH WIND       PRES   REMARKS
GREELEY ARPT     N/A     28  25  86 CALM      30.29S
AKRON          CLOUDY    34  26  72 W12       30.27S WCI  25
BURLINGTON     CLOUDY    31  25  78 W9        30.28S WCI  23
WRAY           NOT AVBL
STERLING       CLOUDY    30  28  93 S5        30.26S WCI  25
HOLYOKE        CLEAR     34  30  86 W7        30.27S WCI  28
FORT MORGAN    CLOUDY    32  26  80 W5        30.28F WCI  27
$$

COZ086-089-092>099-121100-
...SOUTHEAST COLORADO...

CITY           SKY/WX    TMP DP  RH WIND       PRES   REMARKS
PUEBLO         CLOUDY    34  25  69 CALM      30.31S
LA JUNTA       CLEAR     32  26  78 W6        30.31S WCI  26
LAMAR          CLOUDY    31  27  85 SW7       30.29S WCI  24
SPRINGFIELD      N/A     28  22  78 NW12      30.30S WCI  18
$$



USA.gov is the U.S. government's official web portal to all federal, state and local government web resources and services.